ROMMA est une association bénévole à but non lucratif. Votre soutien est indispensable : ADHERER à ROMMA ou FAIRE un DON

Nice - (06, Alpes-Maritimes)

Côte-d'Azur (190 m)   Longitude: 07° 14' E   Latitude: 43° 43' N Station partenaire n°136
 

Détail journalier du     <<     >>

Température Precipitation Humidité Pression Vent Dir Rafale Dir. rafale Ensol.
Heure (°C) (mm) (%) (hPa) (km/h) (km/h) (min)
01:00 17.507010224N21N0
02:00 16.607210225NNE16N0
03:00 15.607310216N19N0
04:00 15.607210212SSE11SO0
05:00 15.907010212ENE8ENE0
06:00 16.406710214NNE21NNE0
07:00 16.406710217NO21NO0
08:00 17.406310218NO26NO0
09:00 19.305910217NNO23N60
10:00 20.905610216NNO21N60
11:00 22.605510214NE21NNO60
12:00 22.107510216SE15SE60
13:00 21.307110206SSE15SSE60
14:00 21.307110205S11S60
15:00 20.207710196SE15ESE60
16:00 19.707010193SE11SE60
17:00 18.1081101903SE10
18:00 16.8087101900---0
19:00 16.3087101900---0
20:00 17.108010194N80
21:00 16.608310191NE8NE0
22:00 16.608110192---13NNE0
23:00 16.207910194N13NE0
minuit 15.707910184N15N0

Graphique du 27-10-2019

 

Serveur OMMA